W0WC Weather Reports


time (UTC)temp
C
wind
direction
speed
KPH
gust
KPH
rain 1hr
cm
rain 24hr
cm
rain mn
cm
humidity
%
barometer
mb
20260503230907 26 168 6.4 11.3 0.00 0.00 0.00 38 1011.9
20260503230404 26 250 8.0 11.3 0.00 0.00 0.00 38 1011.8
20260503225901 26 330 1.6 3.2 0.00 0.00 0.00 38 1012.0
20260503225357 26 182 11.3 14.5 0.00 0.00 0.00 37 1011.9
20260503224854 26 217 12.9 14.5 0.00 0.00 0.00 37 1012.1
20260503224351 26 220 12.9 16.1 0.00 0.00 0.00 36 1011.9
20260503223849 26 207 4.8 6.4 0.00 0.00 0.00 37 1012.1
20260503223347 26 323 3.2 4.8 0.00 0.00 0.00 37 1012.0
20260503222842 26 232 6.4 11.3 0.00 0.00 0.00 37 1012.0
20260503222340 26 203 12.9 20.9 0.00 0.00 0.00 36 1012.1
20260503221838 26 146 3.2 3.2 0.00 0.00 0.00 37 1012.2
20260503221337 26 31 3.2 4.8 0.00 0.00 0.00 35 1012.2
20260503220832 26 176 3.2 4.8 0.00 0.00 0.00 35 1012.3
20260503220329 27 218 14.5 17.7 0.00 0.00 0.00 34 1012.3
20260503215826 27 27 3.2 4.8 0.00 0.00 0.00 36 1012.4
20260503215323 27 216 14.5 25.7 0.00 0.00 0.00 34 1012.5
20260503214821 27 13 4.8 4.8 0.00 0.00 0.00 34 1012.5
20260503214318 27 241 8.0 11.3 0.00 0.00 0.00 34 1012.5
20260503213815 27 221 11.3 14.5 0.00 0.00 0.00 34 1012.5
20260503213313 27 170 3.2 4.8 0.00 0.00 0.00 34 1012.7
20260503212810 27 228 11.3 16.1 0.00 0.00 0.00 34 1012.9
20260503212308 27 230 3.2 6.4 0.00 0.00 0.00 34 1013.0
20260503211805 27 233 6.4 9.7 0.00 0.00 0.00 34 1012.8
20260503211301 27 310 16.1 24.1 0.00 0.00 0.00 33 1013.0
20260503210801 27 263 8.0 11.3 0.00 0.00 0.00 35 1013.2
20260503210259 27 280 11.3 17.7 0.00 0.00 0.00 34 1013.2
20260503205754 27 327 4.8 4.8 0.00 0.00 0.00 37 1013.6
20260503205251 27 228 6.4 9.7 0.00 0.00 0.00 36 1013.5
20260503204747 27 204 4.8 6.4 0.00 0.00 0.00 35 1013.5
20260503204245 27 279 4.8 6.4 0.00 0.00 0.00 37 1013.5
20260503203742 27 212 11.3 22.5 0.00 0.00 0.00 37 1013.5
20260503203239 27 358 6.4 11.3 0.00 0.00 0.00 36 1013.6
20260503202736 27 211 9.7 12.9 0.00 0.00 0.00 34 1013.8
20260503202234 27 225 6.4 11.3 0.00 0.00 0.00 36 1013.8
20260503201732 27 193 8.0 11.3 0.00 0.00 0.00 37 1014.0
20260503201229 26 270 3.2 6.4 0.00 0.00 0.00 35 1013.9
20260503200726 26 219 12.9 14.5 0.00 0.00 0.00 37 1014.0
20260503200222 26 238 14.5 17.7 0.00 0.00 0.00 36 1014.2
20260503195719 27 189 6.4 9.7 0.00 0.00 0.00 36 1014.2
20260503195216 27 14 3.2 4.8 0.00 0.00 0.00 37 1014.2
20260503194713 26 281 3.2 4.8 0.00 0.00 0.00 38 1014.5
20260503194209 26 3 3.2 6.4 0.00 0.00 0.00 39 1014.2
20260503193705 27 234 14.5 17.7 0.00 0.00 0.00 35 1014.5
20260503193201 26 275 6.4 6.4 0.00 0.00 0.00 38 1014.8
20260503192657 26 220 19.3 22.5 0.00 0.00 0.00 37 1014.6
20260503192152 26 201 9.7 12.9 0.00 0.00 0.00 37 1014.7
20260503191649 26 234 9.7 11.3 0.00 0.00 0.00 37 1014.9
20260503191147 26 209 4.8 11.3 0.00 0.00 0.00 38 1014.7
20260503190643 26 202 8.0 12.9 0.00 0.00 0.00 37 1015.0
20260503190140 26 201 8.0 12.9 0.00 0.00 0.00 37 1015.0
20260503185637 26 239 4.8 9.7 0.00 0.00 0.00 39 1015.1
20260503185132 26 320 8.0 11.3 0.00 0.00 0.00 38 1015.0
20260503184627 25 292 6.4 6.4 0.00 0.00 0.00 38 1015.2
20260503184124 26 208 8.0 11.3 0.00 0.00 0.00 38 1015.3
20260503183620 26 220 6.4 6.4 0.00 0.00 0.00 38 1015.4
20260503183118 25 295 3.2 4.8 0.00 0.00 0.00 41 1015.2
20260503182616 25 218 9.7 17.7 0.00 0.00 0.00 38 1015.3
20260503182114 25 217 12.9 16.1 0.00 0.00 0.00 38 1015.6
20260503181610 25 236 6.4 12.9 0.00 0.00 0.00 38 1015.7
20260503181107 25 86 4.8 6.4 0.00 0.00 0.00 39 1015.6
20260503180605 25 218 9.7 14.5 0.00 0.00 0.00 38 1015.7
20260503175559 24 200 4.8 6.4 0.00 0.00 0.00 40 1015.9
20260503175056 25 208 11.3 12.9 0.00 0.00 0.00 39 1016.0
20260503174553 24 226 4.8 6.4 0.00 0.00 0.00 40 1015.9
20260503174049 24 212 8.0 12.9 0.00 0.00 0.00 38 1016.1
20260503173545 24 211 6.4 9.7 0.00 0.00 0.00 39 1016.1
20260503173041 23 303 6.4 11.3 0.00 0.00 0.00 39 1016.2
20260503172539 23 223 20.9 25.7 0.00 0.00 0.00 39 1016.3
20260503172036 23 239 6.4 6.4 0.00 0.00 0.00 42 1016.5
20260503171532 23 235 11.3 14.5 0.00 0.00 0.00 42 1016.4
20260503171030 23 221 9.7 16.1 0.00 0.00 0.00 40 1016.6
20260503170526 23 237 6.4 11.3 0.00 0.00 0.00 41 1016.7
20260503150918 19 174 6.4 9.7 0.00 0.00 0.00 46 1017.5
20260503150415 19 103 8.0 11.3 0.00 0.00 0.00 46 1017.6
20260503131308 13 178 6.4 6.4 0.00 0.00 0.00 51 1018.4
20260503130805 13 210 3.2 4.8 0.00 0.00 0.00 52 1018.5
20260503130302 13 175 9.7 14.5 0.00 0.00 0.00 52 1018.5
20260503110656 8 50 3.2 3.2 0.00 0.00 0.00 65 1018.4
20260503110153 8 203 3.2 4.8 0.00 0.00 0.00 64 1018.3
20260503100120 8 186 4.8 6.4 0.00 0.00 0.00 64 1018.5
20260503081509 8 69 3.2 3.2 0.00 0.00 0.00 62 1019.2
20260503081007 8 50 1.6 1.6 0.00 0.00 0.00 62 1019.2
20260503080503 8 61 3.2 4.8 0.00 0.00 0.00 64 1019.3
20260503072939 8 51 1.6 1.6 0.00 0.00 0.00 65 1019.4
20260503072437 8 66 4.8 4.8 0.00 0.00 0.00 66 1019.4
20260503071934 7 49 1.6 1.6 0.00 0.00 0.00 69 1019.4
20260503071430 7 53 1.6 1.6 0.00 0.00 0.00 70 1019.5
20260503070926 7 47 1.6 1.6 0.00 0.00 0.00 71 1019.6
20260503070424 7 69 1.6 1.6 0.00 0.00 0.00 73 1019.5
20260503054837 7 50 0.0 0.0 0.00 0.00 0.00 80 1020.0
20260503054333 7 50 0.0 0.0 0.00 0.00 0.00 80 1020.2
20260503053831 7 50 0.0 0.0 0.00 0.00 0.00 79 1020.2
20260503053329 7 50 0.0 0.0 0.00 0.00 0.00 78 1020.2
20260503052826 8 50 0.0 0.0 0.00 0.00 0.00 78 1020.1
20260503052322 7 39 0.0 0.0 0.00 0.00 0.00 79 1020.4
20260503051819 7 36 0.0 0.0 0.00 0.00 0.00 80 1020.4
20260503051315 8 34 0.0 0.0 0.00 0.00 0.00 80 1020.4
20260503050812 8 34 0.0 0.0 0.00 0.00 0.00 78 1020.4
20260503050308 8 34 0.0 0.0 0.00 0.00 0.00 77 1020.1
20260503045806 8 33 0.0 0.0 0.00 0.00 0.00 75 1020.4
20260503045305 8 34 0.0 0.0 0.00 0.00 0.00 75 1020.3
20260503044759 8 34 0.0 0.0 0.00 0.00 0.00 75 1020.5
20260503044257 8 33 0.0 0.0 0.00 0.00 0.00 75 1020.5
20260503043754 8 33 0.0 0.0 0.00 0.00 0.00 75 1020.3
20260503043251 8 33 0.0 0.0 0.00 0.00 0.00 74 1020.4
20260503042746 8 30 0.0 0.0 0.00 0.00 0.00 77 1020.3
20260503042244 8 30 0.0 0.0 0.00 0.00 0.00 78 1020.3
20260503041739 8 22 0.0 0.0 0.00 0.00 0.00 77 1020.2
20260503041237 8 23 0.0 0.0 0.00 0.00 0.00 78 1020.3
20260503040735 8 21 0.0 0.0 0.00 0.00 0.00 77 1020.3
20260503040232 8 21 0.0 0.0 0.00 0.00 0.00 75 1020.3
20260503035729 8 21 0.0 0.0 0.00 0.00 0.00 74 1020.2
20260503035227 8 22 0.0 0.0 0.00 0.00 0.00 74 1020.4
20260503034724 8 22 0.0 0.0 0.00 0.00 0.00 74 1020.3
20260503034220 8 23 0.0 0.0 0.00 0.00 0.00 74 1020.4
20260503033718 8 349 0.0 0.0 0.00 0.00 0.00 73 1020.7
20260503033210 8 359 0.0 0.0 0.00 0.00 0.00 73 1020.6
20260503032708 9 359 0.0 0.0 0.00 0.00 0.00 72 1020.3
20260503032207 9 359 0.0 0.0 0.00 0.00 0.00 72 1020.3
20260503031703 9 357 0.0 0.0 0.00 0.00 0.00 70 1020.3
20260503031202 9 359 0.0 0.0 0.00 0.00 0.00 69 1020.3
20260503030657 9 356 0.0 0.0 0.00 0.00 0.00 68 1020.4
20260503030154 9 359 0.0 0.0 0.00 0.00 0.00 71 1020.4
20260503025651 9 359 0.0 0.0 0.00 0.00 0.00 70 1020.2
20260503025149 9 356 0.0 0.0 0.00 0.00 0.00 67 1020.3
20260503024645 10 356 0.0 0.0 0.00 0.00 0.00 65 1020.3
20260503024142 10 357 0.0 0.0 0.00 0.00 0.00 65 1020.3
20260503023639 10 355 0.0 0.0 0.00 0.00 0.00 64 1020.4
20260503023136 10 356 0.0 0.0 0.00 0.00 0.00 65 1020.3
20260503022632 10 356 0.0 0.0 0.00 0.00 0.00 64 1020.1
20260503022131 10 359 0.0 0.0 0.00 0.00 0.00 64 1020.0
20260503021629 10 356 0.0 0.0 0.00 0.00 0.00 63 1020.2
20260503021125 10 358 0.0 0.0 0.00 0.00 0.00 62 1020.1
20260503020622 11 352 0.0 0.0 0.00 0.00 0.00 59 1020.0
20260503020120 11 345 0.0 0.0 0.00 0.00 0.00 60 1020.0
20260503015616 11 0 0.0 0.0 0.00 0.00 0.00 59 1019.9
20260503015113 11 14 0.0 0.0 0.00 0.00 0.00 61 1020.0
20260503014609 11 14 0.0 0.0 0.00 0.00 0.00 60 1019.9
20260503014107 11 354 0.0 0.0 0.00 0.00 0.00 58 1019.7
20260503013604 11 359 0.0 0.0 0.00 0.00 0.00 59 1019.9
20260503013102 12 359 0.0 0.0 0.00 0.00 0.00 56 1019.9
20260503012559 12 359 0.0 0.0 0.00 0.00 0.00 55 1019.6
20260503012055 12 358 0.0 0.0 0.00 0.00 0.00 57 1019.5
20260503011552 12 0 0.0 0.0 0.00 0.00 0.00 56 1019.7
20260503011049 13 0 0.0 0.0 0.00 0.00 0.00 52 1019.6
20260503010545 13 0 0.0 0.0 0.00 0.00 0.00 47 1019.6
20260503010043 14 0 0.0 0.0 0.00 0.00 0.00 48 1019.5
20260503005540 15 359 0.0 0.0 0.00 0.00 0.00 45 1019.5
20260503005037 15 0 0.0 0.0 0.00 0.00 0.00 43 1019.5
20260503004533 15 2 0.0 0.0 0.00 0.00 0.00 40 1019.7
20260503004032 16 4 0.0 0.0 0.00 0.00 0.00 40 1019.5
20260503003528 16 11 0.0 0.0 0.00 0.00 0.00 39 1019.8
20260503003025 16 3 0.0 0.0 0.00 0.00 0.00 37 1019.5
20260503002522 17 2 0.0 0.0 0.00 0.00 0.00 35 1019.6
20260503002019 17 346 0.0 0.0 0.00 0.00 0.00 34 1019.7
20260503001515 17 0 0.0 0.0 0.00 0.00 0.00 33 1019.6
20260503001013 17 1 0.0 1.6 0.00 0.00 0.00 32 1019.5
20260503000510 17 0 1.6 1.6 0.00 0.00 0.00 31 1019.6
20260503000007 17 17 0.0 1.6 0.00 0.00 0.00 32 1019.6
20260502235503 17 344 3.2 3.2 0.00 0.00 0.00 32 1019.6
20260502235001 17 356 1.6 3.2 0.00 0.00 0.00 32 1019.6
20260502234457 17 6 4.8 4.8 0.00 0.00 0.00 31 1019.7
20260502233955 18 331 4.8 6.4 0.00 0.00 0.00 30 1019.7
20260502233450 18 331 6.4 6.4 0.00 0.00 0.00 30 1019.7
20260502232947 18 324 6.4 6.4 0.00 0.00 0.00 29 1019.7
20260502232443 18 346 1.6 1.6 0.00 0.00 0.00 31 1019.7
20260502231940 17 336 6.4 6.4 0.00 0.00 0.00 30 1019.9
20260502231438 17 331 8.0 9.7 0.00 0.00 0.00 30 1019.8